Regional Weather Roundup
Issued by NWS Charleston, WV

Home | Current Version | Previous Version | Text Only | Print | Product List | Glossary Off
Versions: 1 2 3 4 5 6 7 8 9 10 11 12 13 14 15 16 17 18 19 20 21 22 23 24 25 26 27 28 29 30 31 32 33 34 35 36 37 38 39 40 41 42 43 44 45 46 47 48 49 50

136
ASUS41 KRLX 050210
RWRRLX
West Virginia Regional Weather Roundup
National Weather Service Charleston WV
1000 PM EDT WED MAY 04 2016

Note: "fair" indicates few or no clouds below 12,000 feet with no
significant weather and/or obstructions to visibility.

WVZ003-050300-
Northern Panhandle of West Virginia

CITY           SKY/WX    TMP DP  RH WIND       PRES   REMARKS
WHEELING       CLOUDY    49  47  93 SE3       29.69R
$$

WVZ009-050300-
Northwest West Virginia

CITY           SKY/WX    TMP DP  RH WIND       PRES   REMARKS
PARKERSBURG    LGT RAIN  51  49  92 S5        29.72R
$$

WVZ006-050300-
Western West Virginia

CITY           SKY/WX    TMP DP  RH WIND       PRES   REMARKS
HUNTINGTON     CLOUDY    52  49  89 NW9       29.71R
$$

WVZ015-050300-
West Central West Virginia

CITY           SKY/WX    TMP DP  RH WIND       PRES   REMARKS
CHARLESTON     LGT RAIN  51  49  92 SE3       29.70R FOG
$$

WVZ022-031-050300-
North Central West Virginia

CITY           SKY/WX    TMP DP  RH WIND       PRES   REMARKS
CLARKSBURG     LGT RAIN  50  47  89 NW5       29.70R
MORGANTOWN     MOCLDY    53  42  66 CALM      29.71R
$$

WVZ025-035-042-045-050300-
Southern West Virginia

CITY           SKY/WX    TMP DP  RH WIND       PRES   REMARKS
BECKLEY        LGT RAIN  48  43  82 W7        29.71R
LOGAN          NOT AVBL
BLUEFIELD      RAIN      47  41  80 W10       29.73R
LEWISBURG      LGT RAIN  49  41  73 N7        29.69R
$$

WVZ047-050300-
Northern Mountains of West Virginia

CITY           SKY/WX    TMP DP  RH WIND       PRES   REMARKS
ELKINS         MOCLDY    48  42  80 N6        29.71R
$$

WVZ052-050300-
Eastern Panhandle of West Virginia

CITY           SKY/WX    TMP DP  RH WIND       PRES   REMARKS
MARTINSBURG    CLOUDY    55  53  93 NE6       29.68R
PETERSBURG     CLOUDY    58  50  77 CALM      29.67S
$$




USA.gov is the U.S. government's official web portal to all federal, state and local government web resources and services.